カタログに戻る

STARLINK-4565

運用中通信VLEO
NORAD 53562·PAYLOAD·🇺🇸 United States

打ち上げ Aug 19, 2022 から Cape Canaveral Space Force Station

Loading…

次のパス (今後24時間)

TLE

最新Source: CelesTrak SupGP

元期: Sep 15, 2026, 02:05 UTC

1 53562C 22101AM  26258.08729167 -.00005921  00000+0 -17492-3 0  2582
2 53562  53.1575 268.9424 0001333  94.5984 200.7617 15.34398441    19

AllMySatでSTARLINK-4565をリアルタイム追跡

Download on the App Store